Terug naar catalogus

INMARSAT 3-F2

ActiefCommunicatieGEO
NORAD 24307·PAYLOAD·🇮🇲 IM

Gelanceerd Sep 6, 1996 vanaf Baikonur Cosmodrome

Loading…

TLE

VersSource: Space-Track

Epoch: Sep 14, 2026, 12:21 UTC

1 24307U 96053A   26257.51516199  .00000090  00000-0  00000-0 0  9997
2 24307  10.0546  53.0016 0005738 118.7543  64.4118  0.99977811109815

Volg INMARSAT 3-F2 in realtime met AllMySat

Download on the App Store